Location: Stonelick Lake State Park
(39.2170°N, 84.0850°W)
Time: 16:20:22
(UTC-04:00)

Amateur Radio Satellites - All Passes

Search period start: 01 September 2015 15:50
Search period end: 02 September 2015 15:50
Location: Stonelick Lake State Park, 39.2170°N, 84.0850°W

Satellite Date Start Highest point End Downlink Frequencies (MHz)
Time Altitude Azimuth
BEESAT 01 Sep 15:52:53 15:57:36 62° 286° (WNW) 16:02:17 436.000
AO-7 01 Sep 16:10:49 16:18:59 63° 68° (ENE) 16:27:12 29.400- 29.500
GONETS M04 01 Sep 16:12:55 16:20:53 39° 273° (W) 16:28:42
SWISSCUBE 01 Sep 16:19:23 16:23:34 31° 290° (WNW) 16:27:41 437.505
SRMSAT 01 Sep 16:21:36 16:21:58 10° 175° (S) 16:22:22 437.500
BEESAT 3 01 Sep 16:24:51 16:28:38 36° 308° (NW) 16:32:26 437.485
Gurwin Techsat 1B 01 Sep 16:24:53 16:28:45 20° 269° (W) 16:32:28 435.225
STARS 01 Sep 16:32:00 16:35:59 32° 97° (E) 16:39:59 437.465
Cosmos 2499 01 Sep 16:33:56 16:42:39 86° 82° (E) 16:50:43 435.465 / 435.565
BEESAT 2 01 Sep 16:38:02 16:41:50 36° 307° (NW) 16:45:39 435.950
ITAMSAT 1 01 Sep 16:39:07 16:42:30 17° 269° (W) 16:45:40 435.822/435.867
KKS-1 01 Sep 16:52:08 16:56:40 86° 284° (WNW) 17:01:08 437.445
ITUPSAT 1 01 Sep 16:59:31 17:02:14 15° 296° (WNW) 17:04:46 437.325
HORYU 2 01 Sep 17:00:39 17:05:07 67° 258° (WSW) 17:09:37 437.375
ISS 01 Sep 17:09:25 17:12:06 23° 227° (SW) 17:14:45 145.825
MOZHAYETS 4 01 Sep 17:10:34 17:13:58 21° 93° (E) 17:17:28
AIST 2 01 Sep 17:18:56 17:23:09 67° 302° (WNW) 17:27:24 435.215
CUTE-I 01 Sep 17:31:00 17:32:15 11° 60° (ENE) 17:33:50 437.470
JAS-2 01 Sep 17:34:38 17:39:57 19° 274° (W) 17:44:56 435.910
RS-15 01 Sep 17:45:24 17:56:20 74° 305° (NW) 18:07:45 29.354- 29.394
AO-7 01 Sep 18:05:21 18:12:21 28° 266° (W) 18:19:06 29.400- 29.500
STARS 01 Sep 18:08:45 18:12:15 22° 292° (WNW) 18:15:38 437.465
SRMSAT 01 Sep 18:09:44 18:10:13 10° 185° (S) 18:10:38 437.500
Cubesat XI-IV 01 Sep 18:22:19 18:27:00 34° 69° (ENE) 18:31:47 437.490
Cosmos 2499 01 Sep 18:29:20 18:34:42 18° 281° (W) 18:39:24 435.465 / 435.565
MOZHAYETS 4 01 Sep 18:47:09 18:51:18 35° 289° (WNW) 18:55:24
CUBESAT XI-V 01 Sep 19:06:04 19:10:09 31° 95° (E) 19:14:18 437.345
CUTE-I 01 Sep 19:06:19 19:11:37 86° 79° (E) 19:16:59 437.470
STRAND 1 01 Sep 19:19:18 19:19:35 10° 87° (E) 19:20:15 437.568
AIST 1 01 Sep 19:28:32 19:32:13 27° 75° (ENE) 19:36:00
BRITE-PL 01 Sep 19:33:22 19:36:46 23° 67° (ENE) 19:40:29 437.365/2234.400
O/OREOS (USA 219) 01 Sep 19:51:31 19:56:03 89° 111° (ESE) 20:00:39 437.305
GOMX 1 01 Sep 19:57:32 20:01:09 24° 68° (ENE) 20:05:05 467.674
RS-15 01 Sep 20:02:16 20:11:16 26° 333° (NNW) 20:20:20 29.354- 29.394
Cubesat XI-IV 01 Sep 20:02:32 20:07:09 29° 265° (W) 20:11:41 437.490
DOVE 4 01 Sep 20:07:12 20:10:25 19° 66° (ENE) 20:13:55 437.250
HO-68 01 Sep 20:20:15 20:26:32 36° 65° (ENE) 20:32:57 435.675
Cosmos 2491 01 Sep 20:26:08 20:34:22 45° 74° (ENE) 20:42:43 435.465 / 435.565
CUTE 1.7 + AOD 2 01 Sep 20:32:22 20:35:37 22° 69° (ENE) 20:38:57 437.475
YUBILEINY 01 Sep 20:34:27 20:40:16 21° 81° (E) 20:46:32 435.215
CUBESAT XI-V 01 Sep 20:43:40 20:47:29 25° 291° (WNW) 20:51:14 437.345
PRISM 01 Sep 20:45:20 20:49:24 58° 101° (E) 20:53:27 437.425
CINEMA 3 01 Sep 20:45:42 20:49:11 21° 67° (ENE) 20:52:53 145.822/145.860
CANX-2 01 Sep 20:45:50 20:49:41 34° 72° (ENE) 20:53:35 2200.000
CUTE-I 01 Sep 20:51:23 20:52:30 10° 273° (W) 20:53:13 437.470
STRAND 1 01 Sep 20:54:24 20:59:32 83° 285° (WNW) 21:04:39 437.568
SEEDS 01 Sep 21:05:28 21:09:26 40° 73° (ENE) 21:13:25 437.485
AIST 1 01 Sep 21:06:21 21:09:46 22° 271° (W) 21:13:06
BRITE-PL 01 Sep 21:11:15 21:15:09 31° 265° (W) 21:19:17 437.365/2234.400
Oscar 11 01 Sep 21:17:43 21:20:25 17° 67° (ENE) 21:23:16 145.826/435.025
COMPASS 1 01 Sep 21:25:37 21:29:42 53° 75° (ENE) 21:33:48 437.405
AAUSAT CUBESAT 2 01 Sep 21:34:56 21:39:02 57° 75° (ENE) 21:43:09 437.432
GOMX 1 01 Sep 21:35:07 21:39:09 31° 266° (W) 21:43:25 467.674
O/OREOS (USA 219) 01 Sep 21:35:36 21:36:17 10° 311° (NW) 21:36:42 437.305
DOVE 4 01 Sep 21:43:26 21:47:49 43° 263° (W) 21:52:29 437.250
DELFI C3 01 Sep 21:52:54 21:56:08 24° 70° (ENE) 21:59:27 145.870
ZACube-1 01 Sep 22:01:25 22:05:27 33° 71° (ENE) 22:09:36 437.345
CUBEBUG 2 01 Sep 22:05:05 22:09:39 62° 75° (ENE) 22:14:21 437.445
FUNcube-1 01 Sep 22:06:15 22:10:22 36° 71° (ENE) 22:14:35 145.935
HO-68 01 Sep 22:07:23 22:14:09 43° 262° (W) 22:20:55 435.675
CUTE 1.7 + AOD 2 01 Sep 22:07:33 22:11:22 30° 264° (W) 22:15:09 437.475
UWE-3 01 Sep 22:10:03 22:14:31 54° 74° (ENE) 22:19:07 435.000/436.395/437.385
CINEMA 3 01 Sep 22:21:40 22:26:05 40° 264° (W) 22:30:41 145.822/145.860
RS-15 01 Sep 22:21:49 22:29:18 19° 8° (N) 22:37:09 29.354- 29.394
CANX-2 01 Sep 22:22:34 22:25:43 19° 268° (W) 22:28:45 2200.000
PRISM 01 Sep 22:22:55 22:24:23 11° 295° (WNW) 22:25:38 437.425
Cosmos 2491 01 Sep 22:23:15 22:31:10 39° 273° (W) 22:38:56 435.465 / 435.565
Cosmos 2504 01 Sep 22:24:02 22:26:21 12° 76° (ENE) 22:29:23 435.465 / 435.565
YUBILEINY 01 Sep 22:27:27 22:36:14 77° 279° (W) 22:45:06 435.215
STRAND 1 01 Sep 22:37:35 22:38:02 10° 299° (WNW) 22:38:09 437.568
HUMSAT D 01 Sep 22:38:15 22:42:02 31° 71° (ENE) 22:45:54 437.325/437.525
SEEDS 01 Sep 22:42:41 22:45:25 16° 269° (W) 22:47:59 437.485
DX 1 01 Sep 22:46:46 22:50:08 23° 69° (ENE) 22:53:37 434.975-435.025
Oscar 11 01 Sep 22:52:09 22:56:18 42° 262° (W) 23:00:26 145.826/435.025
UKube-1 01 Sep 22:57:28 23:01:03 27° 69° (ENE) 23:04:44 .
COMPASS 1 01 Sep 23:04:03 23:05:45 12° 271° (W) 23:07:13 437.405
ESTCUBE 1 01 Sep 23:04:21 23:07:12 17° 67° (ENE) 23:10:12 437.505/2401.250
BEESAT 3 01 Sep 23:08:12 23:09:17 11° 40° (NE) 23:10:31 437.485
CUBEBUG 1 01 Sep 23:11:17 23:13:50 16° 66° (ENE) 23:16:34 437.445
AISAT 01 Sep 23:12:41 23:16:26 29° 70° (ENE) 23:20:16 437.250
AAUSAT CUBESAT 2 01 Sep 23:13:50 23:15:03 11° 271° (W) 23:16:01 437.432
BEESAT 2 01 Sep 23:21:39 23:22:59 11° 40° (NE) 23:24:27 435.950
DELFI C3 01 Sep 23:27:46 23:31:08 24° 265° (W) 23:34:25 145.870
UNISAT 6 01 Sep 23:28:18 23:32:07 27° 94° (E) 23:35:55 437.425
ZACube-1 01 Sep 23:38:14 23:41:52 23° 267° (W) 23:45:27 437.345
VELOX 1 01 Sep 23:39:58 23:44:15 54° 74° (ENE) 23:48:35 145.980
FUNcube-1 01 Sep 23:43:19 23:46:48 21° 268° (W) 23:50:11 145.935
CUBEBUG 2 01 Sep 23:44:44 23:46:51 12° 272° (W) 23:48:43 437.445
UWE-3 01 Sep 23:48:54 23:51:27 14° 271° (W) 23:53:48 435.000/436.395/437.385
TIGRISAT 01 Sep 23:55:59 00:00:27 52° 99° (E) 00:04:46 435.000
50 SAT 01 Sep 23:57:55 00:01:53 73° 258° (WSW) 00:05:51 437.505
Cosmos 2504 02 Sep 00:09:06 00:17:07 71° 94° (E) 00:25:40 435.465 / 435.565
ANTELSAT 02 Sep 00:13:28 00:18:03 85° 101° (E) 00:22:30 437.575/2403.000
AUBIESAT-1 02 Sep 00:14:06 00:17:45 40° 102° (ESE) 00:21:09 437.475
HUMSAT D 02 Sep 00:14:27 00:17:49 21° 267° (W) 00:21:07 437.325/437.525
M-CUBED/EXP-1 PRIME 02 Sep 00:20:24 00:24:18 62° 105° (ESE) 00:27:52 437.505
DX 1 02 Sep 00:22:27 00:26:16 29° 264° (W) 00:30:04 434.975-435.025
POLYITAN 1 02 Sep 00:24:30 00:28:32 38° 97° (E) 00:32:34 437.675
DUCHIFAT 1 02 Sep 00:26:06 00:30:06 37° 97° (E) 00:34:05 145.980
POPSAT HIP 1 02 Sep 00:26:38 00:30:41 40° 98° (E) 00:34:44 437.405
BUGSAT 1 02 Sep 00:29:08 00:32:39 25° 95° (E) 00:36:13 437.445
YUBILEINY 02 Sep 00:30:08 00:34:56 15° 302° (WNW) 00:39:10 435.215
CUSAT 1 02 Sep 00:32:30 00:36:09 41° 91° (E) 00:40:58 437.405
UKube-1 02 Sep 00:33:34 00:37:09 25° 265° (W) 00:40:40 .
RS-15 02 Sep 00:35:39 00:46:23 40° 41° (NE) 00:57:41 29.354- 29.394
SPROUT 02 Sep 00:36:47 00:40:48 41° 73° (ENE) 00:44:52 437.525
ESTCUBE 1 02 Sep 00:39:29 00:43:46 43° 262° (W) 00:48:03 437.505/2401.250
QB50P2 02 Sep 00:43:44 00:48:02 67° 101° (E) 00:52:17 145.880/145.840
BEESAT 3 02 Sep 00:43:48 00:47:51 87° 245° (WSW) 00:51:49 437.485
NANOSAT C BR1 02 Sep 00:43:51 00:48:07 63° 100° (E) 00:52:21 145.865
CUBEBUG 1 02 Sep 00:45:44 00:49:52 44° 261° (W) 00:54:01 437.445
AISAT 02 Sep 00:49:22 00:53:00 24° 266° (W) 00:56:35 437.250
BEESAT 2 02 Sep 00:57:34 01:01:38 84° 240° (WSW) 01:05:38 435.950
QB50P1 02 Sep 00:57:59 01:02:19 86° 281° (W) 01:06:35 145.935-145.965
SO-50 02 Sep 01:00:54 01:04:57 29° 113° (ESE) 01:09:11 436.795
UNISAT 6 02 Sep 01:04:58 01:08:51 27° 291° (WNW) 01:12:35 437.425
PCSat 02 Sep 01:08:14 01:10:25 13° 105° (ESE) 01:12:55 145.827
DANDE 02 Sep 01:09:01 01:12:23 60° 95° (E) 01:16:55 436.750
VELOX 1 02 Sep 01:19:12 01:21:13 13° 271° (W) 01:23:00 145.980
BEESAT 02 Sep 01:23:00 01:25:27 15° 64° (ENE) 01:28:06 436.000
TIGRISAT 02 Sep 01:34:05 01:36:45 15° 295° (WNW) 01:39:13 435.000
TISAT 1 02 Sep 01:35:59 01:40:11 72° 258° (WSW) 01:44:25 437.305
AIST 2 02 Sep 01:41:38 01:45:45 55° 55° (NE) 01:49:47 435.215
SWISSCUBE 02 Sep 01:47:25 01:51:23 27° 69° (ENE) 01:55:25 437.505
AUBIESAT-1 02 Sep 01:50:01 01:52:06 14° 300° (WNW) 01:53:58 437.475
M-CUBED/EXP-1 PRIME 02 Sep 01:57:54 01:58:31 10° 302° (WNW) 01:58:55 437.505
POLYITAN 1 02 Sep 02:01:11 02:04:10 18° 293° (WNW) 02:06:59 437.675
DUCHIFAT 1 02 Sep 02:02:39 02:05:38 18° 292° (WNW) 02:08:29 145.980
POPSAT HIP 1 02 Sep 02:03:21 02:06:16 17° 293° (WNW) 02:09:01 437.405
Cosmos 2504 02 Sep 02:03:46 02:10:17 24° 295° (WNW) 02:16:44 435.465 / 435.565
BUGSAT 1 02 Sep 02:04:28 02:08:03 26° 290° (WNW) 02:11:34 437.445
Oscar 19 02 Sep 02:10:38 02:14:35 22° 93° (E) 02:18:40 437.125/150
SPROUT 02 Sep 02:14:22 02:17:06 16° 269° (W) 02:19:41 437.525
CUSAT 1 02 Sep 02:16:32 02:19:19 16° 300° (WNW) 02:22:23 437.405
NANOSAT C BR1 02 Sep 02:21:54 02:23:27 11° 295° (WNW) 02:24:46 145.865
QB50P2 02 Sep 02:22:06 02:23:24 11° 296° (WNW) 02:24:28 145.880/145.840
ITUPSAT 1 02 Sep 02:25:42 02:30:24 61° 73° (ENE) 02:35:07 437.325
SO-50 02 Sep 02:41:00 02:45:24 34° 310° (NW) 02:49:54 436.795
PCSat 02 Sep 02:47:49 02:53:14 78° 299° (WNW) 02:58:42 145.827
RS-15 02 Sep 02:48:03 02:59:52 70° 244° (WSW) 03:11:58 29.354- 29.394
BEESAT 02 Sep 02:58:07 03:02:50 61° 259° (W) 03:07:34 436.000
Gurwin Techsat 1B 02 Sep 03:01:23 03:05:17 21° 92° (E) 03:09:20 435.225
JAS-2 02 Sep 03:02:11 03:04:00 11° 81° (E) 03:06:15 435.910
ITAMSAT 1 02 Sep 03:12:15 03:16:02 21° 92° (E) 03:20:00 435.822/435.867
GONETS M04 02 Sep 03:15:18 03:23:35 53° 90° (E) 03:31:59
Cosmos 2499 02 Sep 03:20:57 03:23:55 13° 77° (ENE) 03:27:40 435.465 / 435.565
AIST 2 02 Sep 03:21:58 03:23:52 13° 250° (WSW) 03:25:34 435.215
SWISSCUBE 02 Sep 03:24:59 03:29:10 29° 264° (W) 03:33:18 437.505
STARS 02 Sep 03:28:02 03:31:38 26° 69° (ENE) 03:35:21 437.465
VERMONT LUNAR 02 Sep 03:42:24 03:45:05 30° 155° (SSE) 03:47:46 437.305
KKS-1 02 Sep 03:48:56 03:53:22 75° 76° (ENE) 03:57:51 437.445
Oscar 19 02 Sep 03:49:15 03:54:09 42° 289° (WNW) 03:58:58 437.125/150
ITUPSAT 1 02 Sep 04:06:24 04:08:46 13° 271° (W) 04:10:51 437.325
MOZHAYETS 4 02 Sep 04:11:56 04:15:03 19° 67° (ENE) 04:18:20
AO-7 02 Sep 04:15:07 04:20:38 20° 90° (E) 04:26:34 29.400- 29.500
O/OREOS (USA 219) 02 Sep 04:24:43 04:27:20 15° 53° (NE) 04:30:07 437.305
PCSat 02 Sep 04:34:56 04:37:39 13° 320° (NW) 04:40:09 145.827
Gurwin Techsat 1B 02 Sep 04:40:27 04:45:31 45° 289° (WNW) 04:50:33 435.225
JAS-2 02 Sep 04:43:32 04:50:32 85° 103° (ESE) 04:56:38 435.910
ITAMSAT 1 02 Sep 04:50:52 04:55:47 44° 289° (WNW) 05:00:41 435.822/435.867
PHONESAT 2.4 02 Sep 04:51:18 04:52:33 12° 146° (SE) 04:53:54 2401.200-2431.200
HORYU 2 02 Sep 04:53:28 04:57:04 24° 94° (E) 05:00:44 437.375
STARS 02 Sep 05:04:13 05:08:01 27° 265° (W) 05:11:46 437.465
RS-15 02 Sep 05:04:36 05:10:41 14° 261° (W) 05:15:38 29.354- 29.394
Cosmos 2499 02 Sep 05:07:17 05:15:40 73° 94° (E) 05:24:32 435.465 / 435.565
GONETS M04 02 Sep 05:13:12 05:20:51 32° 291° (WNW) 05:28:22
VERMONT LUNAR 02 Sep 05:18:22 05:21:21 80° 350° (N) 05:24:20 437.305
MOZHAYETS 4 02 Sep 05:47:37 05:52:01 42° 262° (W) 05:56:23
O/OREOS (USA 219) 02 Sep 06:02:41 06:07:14 57° 252° (WSW) 06:11:42 437.305
AO-7 02 Sep 06:06:06 06:14:25 80° 290° (WNW) 06:22:41 29.400- 29.500
CUBESAT XI-V 02 Sep 06:08:41 06:12:29 27° 70° (ENE) 06:16:22 437.345
PHONESAT 2.4 02 Sep 06:26:40 06:29:59 50° 159° (SSE) 06:33:18 2401.200-2431.200
HORYU 2 02 Sep 06:29:50 06:33:42 29° 291° (WNW) 06:37:29 437.375
JAS-2 02 Sep 06:30:20 06:34:37 17° 302° (WNW) 06:38:23 435.910
STRAND 1 02 Sep 06:32:49 06:35:35 15° 63° (ENE) 06:38:34 437.568
Cubesat XI-IV 02 Sep 06:41:56 06:44:31 14° 89° (E) 06:47:25 437.490
VERMONT LUNAR 02 Sep 06:54:54 06:57:52 72° 7° (N) 07:00:50 437.305
Cosmos 2499 02 Sep 07:03:03 07:09:51 24° 295° (WNW) 07:16:33 435.465 / 435.565
CUTE-I 02 Sep 07:24:43 07:29:37 37° 97° (E) 07:34:32 437.470
PRISM 02 Sep 07:34:18 07:38:02 36° 72° (ENE) 07:41:49 437.425
BRITE-PL 02 Sep 07:40:50 07:41:40 10° 85° (E) 07:42:57 437.365/2234.400
CUBESAT XI-V 02 Sep 07:45:54 07:49:52 28° 265° (W) 07:53:47 437.345
AIST 1 02 Sep 07:57:56 08:00:36 17° 88° (E) 08:03:25
AO-7 02 Sep 08:00:52 08:06:07 18° 308° (NW) 08:10:58 29.400- 29.500
PHONESAT 2.4 02 Sep 08:04:26 08:07:51 71° 356° (N) 08:11:14 2401.200-2431.200
STRAND 1 02 Sep 08:09:15 08:14:19 65° 258° (WSW) 08:19:24 437.568
ISS 02 Sep 08:11:58 08:14:09 17° 131° (SE) 08:16:25 145.825
Cubesat XI-IV 02 Sep 08:19:54 08:25:12 68° 286° (WNW) 08:30:30 437.490
VERMONT LUNAR 02 Sep 08:31:24 08:34:12 38° 203° (SSW) 08:36:59 437.305
YUBILEINY 02 Sep 08:39:08 08:47:42 52° 76° (ENE) 08:56:13 435.215
CUTE-I 02 Sep 09:05:06 09:09:34 27° 293° (WNW) 09:13:55 437.470
PRISM 02 Sep 09:10:57 09:13:37 16° 268° (W) 09:16:09 437.425
BRITE-PL 02 Sep 09:15:22 09:20:58 86° 101° (E) 09:26:41 437.365/2234.400
Cosmos 2491 02 Sep 09:25:45 09:34:02 53° 91° (E) 09:42:25 435.465 / 435.565
SO-50 02 Sep 09:33:14 09:37:09 23° 45° (NE) 09:41:05 436.795
AIST 1 02 Sep 09:34:06 09:37:59 34° 283° (WNW) 09:41:53
HO-68 02 Sep 09:35:53 09:42:31 40° 97° (E) 09:49:13 435.675
GOMX 1 02 Sep 09:36:42 09:42:13 83° 100° (E) 09:47:43 467.674
PHONESAT 2.4 02 Sep 09:42:24 09:45:49 90° 84° (E) 09:49:13 2401.200-2431.200
DOVE 4 02 Sep 09:42:59 09:48:15 59° 99° (E) 09:53:25 437.250
ISS 02 Sep 09:47:11 09:50:21 46° 327° (NNW) 09:53:30 145.825
CUTE 1.7 + AOD 2 02 Sep 09:53:15 09:57:20 47° 99° (E) 10:01:24 437.475
PCSat 02 Sep 09:55:52 09:57:37 12° 38° (NE) 09:59:38 145.827
Cosmos 2504 02 Sep 09:58:24 10:04:28 22° 64° (ENE) 10:10:38 435.465 / 435.565
CUBEBUG 2 02 Sep 09:59:00 10:01:30 15° 89° (E) 10:04:10 437.445
UWE-3 02 Sep 10:03:22 10:05:00 12° 88° (E) 10:06:53 435.000/436.395/437.385
DANDE 02 Sep 10:07:21 10:09:50 12° 59° (ENE) 10:13:04 436.750
CANX-2 02 Sep 10:07:25 10:11:39 80° 102° (ESE) 10:15:51 2200.000
CINEMA 3 02 Sep 10:17:22 10:22:18 56° 99° (E) 10:27:02 145.822/145.860
SEEDS 02 Sep 10:26:04 10:30:16 89° 285° (WNW) 10:34:26 437.485
UNISAT 6 02 Sep 10:26:14 10:29:51 23° 68° (ENE) 10:33:35 437.425
YUBILEINY 02 Sep 10:36:34 10:44:13 33° 274° (W) 10:51:36 435.215
Oscar 11 02 Sep 10:40:29 10:44:26 35° 97° (E) 10:48:24 145.826/435.025
COMPASS 1 02 Sep 10:45:21 10:49:30 68° 284° (WNW) 10:53:35 437.405
TIGRISAT 02 Sep 10:53:15 10:57:37 41° 72° (ENE) 11:02:04 435.000
AAUSAT CUBESAT 2 02 Sep 10:54:09 10:58:15 64° 285° (WNW) 11:02:19 437.432
BRITE-PL 02 Sep 10:56:00 10:58:51 14° 296° (WNW) 11:01:27 437.365/2234.400
AUBIESAT-1 02 Sep 10:59:06 11:03:41 52° 69° (ENE) 11:08:14 437.475
M-CUBED/EXP-1 PRIME 02 Sep 11:05:49 11:10:36 73° 70° (ENE) 11:15:20 437.505
DELFI C3 02 Sep 11:06:53 11:10:42 44° 98° (E) 11:14:32 145.870
CUSAT 1 02 Sep 11:07:26 11:14:56 46° 74° (ENE) 11:22:47 437.405
ANTELSAT 02 Sep 11:10:44 11:15:23 66° 74° (ENE) 11:20:05 437.575/2403.000
SO-50 02 Sep 11:13:13 11:17:59 48° 244° (WSW) 11:22:35 436.795
POLYITAN 1 02 Sep 11:16:38 11:20:09 26° 70° (ENE) 11:23:47 437.675
GOMX 1 02 Sep 11:16:52 11:19:42 14° 297° (WNW) 11:22:16 467.674
DUCHIFAT 1 02 Sep 11:17:38 11:21:04 25° 70° (ENE) 11:24:35 145.980
POPSAT HIP 1 02 Sep 11:18:34 11:22:05 27° 70° (ENE) 11:25:44 437.405
BUGSAT 1 02 Sep 11:19:10 11:21:33 16° 67° (ENE) 11:24:06 437.445
PHONESAT 2.4 02 Sep 11:20:33 11:23:29 27° 208° (SSW) 11:26:24 2401.200-2431.200
DOVE 4 02 Sep 11:21:55 11:25:32 18° 295° (WNW) 11:28:56 437.250
Cosmos 2491 02 Sep 11:23:39 11:31:19 32° 291° (WNW) 11:38:49 435.465 / 435.565
HO-68 02 Sep 11:23:39 11:30:14 39° 295° (WNW) 11:36:42 435.675
ISS 02 Sep 11:25:51 11:27:25 13° 345° (NNW) 11:28:56 145.825
ZACube-1 02 Sep 11:26:53 11:31:23 79° 102° (ESE) 11:35:45 437.345
CUTE 1.7 + AOD 2 02 Sep 11:30:31 11:32:53 14° 293° (WNW) 11:35:04 437.475
FUNcube-1 02 Sep 11:31:31 11:36:01 86° 102° (ESE) 11:40:22 145.935
VELOX 1 02 Sep 11:33:46 11:35:02 11° 89° (E) 11:36:36 145.980
CUBEBUG 2 02 Sep 11:34:02 11:38:34 50° 287° (WNW) 11:42:57 437.445
NANOSAT C BR1 02 Sep 11:35:10 11:39:07 40° 72° (ENE) 11:43:08 145.865
QB50P2 02 Sep 11:35:25 11:39:26 42° 73° (ENE) 11:43:31 145.880/145.840
50 SAT 02 Sep 11:35:43 11:37:24 13° 90° (E) 11:39:15 437.505
PCSat 02 Sep 11:36:48 11:42:13 66° 60° (ENE) 11:47:36 145.827
UWE-3 02 Sep 11:37:30 11:42:02 59° 285° (WNW) 11:46:24 435.000/436.395/437.385
DANDE 02 Sep 11:46:47 11:54:27 61° 77° (ENE) 12:02:55 436.750
QB50P1 02 Sep 11:49:18 11:53:29 60° 74° (ENE) 11:57:42 145.935-145.965
Cosmos 2504 02 Sep 11:49:19 11:57:46 75° 266° (W) 12:05:38 435.465 / 435.565
CINEMA 3 02 Sep 11:55:48 11:59:01 17° 295° (WNW) 12:01:59 145.822/145.860
HUMSAT D 02 Sep 11:58:20 12:02:33 67° 101° (E) 12:06:41 437.325/437.525
UNISAT 6 02 Sep 12:02:07 12:06:26 35° 264° (W) 12:10:45 437.425
DX 1 02 Sep 12:11:07 12:15:23 48° 100° (E) 12:19:38 434.975-435.025
Oscar 11 02 Sep 12:17:16 12:20:24 19° 292° (WNW) 12:23:23 145.826/435.025
UKube-1 02 Sep 12:21:02 12:25:19 56° 101° (E) 12:29:35 .
TIGRISAT 02 Sep 12:31:09 12:34:34 19° 268° (W) 12:37:51 435.000
ESTCUBE 1 02 Sep 12:32:59 12:37:13 40° 98° (E) 12:41:29 437.505/2401.250
CUBEBUG 1 02 Sep 12:35:27 12:39:29 35° 97° (E) 12:43:34 437.445
AUBIESAT-1 02 Sep 12:35:33 12:38:39 17° 264° (W) 12:41:31 437.475
AISAT 02 Sep 12:39:52 12:44:22 68° 101° (ESE) 12:48:49 437.250
DELFI C3 02 Sep 12:43:22 12:45:25 13° 293° (WNW) 12:47:17 145.870
M-CUBED/EXP-1 PRIME 02 Sep 12:43:51 12:45:50 12° 267° (W) 12:47:32 437.505
CUSAT 1 02 Sep 12:50:07 12:57:27 40° 269° (W) 13:04:50 437.405
ANTELSAT 02 Sep 12:50:49 12:52:41 12° 272° (W) 12:54:15 437.575/2403.000
POLYITAN 1 02 Sep 12:52:26 12:56:01 25° 265° (W) 12:59:33 437.675
BUGSAT 1 02 Sep 12:52:51 12:56:42 40° 262° (W) 13:00:36 437.445
DUCHIFAT 1 02 Sep 12:53:12 12:56:47 26° 265° (W) 13:00:21 145.980
POPSAT HIP 1 02 Sep 12:54:24 12:57:56 24° 266° (W) 13:01:24 437.405
VELOX 1 02 Sep 13:07:38 13:12:04 62° 286° (WNW) 13:16:29 145.980
50 SAT 02 Sep 13:08:32 13:12:10 40° 287° (WNW) 13:15:45 437.505
NANOSAT C BR1 02 Sep 13:12:27 13:15:10 16° 269° (W) 13:17:44 145.865
QB50P2 02 Sep 13:13:00 13:15:35 15° 269° (W) 13:18:00 145.880/145.840
PCSat 02 Sep 13:21:52 13:25:08 16° 254° (WSW) 13:28:09 145.827
TISAT 1 02 Sep 13:22:16 13:25:16 19° 93° (E) 13:28:24 437.305
Oscar 19 02 Sep 13:26:21 13:30:44 30° 68° (ENE) 13:35:15 437.125/150
GONETS M04 02 Sep 13:27:19 13:34:03 25° 65° (ENE) 13:41:07
QB50P1 02 Sep 13:28:46 13:29:49 11° 272° (W) 13:30:35 145.935-145.965
DANDE 02 Sep 13:30:37 13:37:20 30° 271° (W) 13:44:17 436.750
HUMSAT D 02 Sep 13:36:50 13:37:45 10° 296° (WNW) 13:38:25 437.325/437.525
Cosmos 2504 02 Sep 13:45:12 13:48:35 12° 283° (WNW) 13:51:17 435.465 / 435.565
DX 1 02 Sep 13:48:38 13:51:16 15° 294° (WNW) 13:53:43 434.975-435.025
UKube-1 02 Sep 13:58:52 14:01:02 13° 295° (WNW) 14:02:57 .
SPROUT 02 Sep 13:59:57 14:04:19 85° 283° (WNW) 14:08:39 437.525
ESTCUBE 1 02 Sep 14:10:39 14:13:50 19° 293° (WNW) 14:16:53 437.505/2401.250
CUBEBUG 1 02 Sep 14:12:18 14:15:39 21° 292° (WNW) 14:18:51 437.445
AISAT 02 Sep 14:18:39 14:20:25 12° 296° (WNW) 14:21:57 437.250
Gurwin Techsat 1B 02 Sep 14:21:17 14:25:50 31° 69° (ENE) 14:30:29 435.225
ITUPSAT 1 02 Sep 14:28:32 14:31:30 17° 91° (E) 14:34:40 437.325
ITAMSAT 1 02 Sep 14:29:06 14:33:29 29° 68° (ENE) 14:37:57 435.822/435.867
BEESAT 3 02 Sep 14:35:48 14:38:50 21° 112° (ESE) 14:41:58 437.485
ISS 02 Sep 14:39:43 14:42:21 22° 25° (NNE) 14:44:58 145.825
BEESAT 2 02 Sep 14:50:24 14:53:36 23° 113° (ESE) 14:56:52 435.950
JAS-2 02 Sep 14:52:25 14:59:21 39° 67° (ENE) 15:06:30 435.910
JUGNU 02 Sep 14:54:18 14:55:41 11° 180° (S) 14:57:05 437.505
TISAT 1 02 Sep 14:57:15 15:01:09 34° 289° (WNW) 15:04:59 437.305
BEESAT 02 Sep 14:59:32 15:03:54 36° 97° (E) 15:08:18 436.000
Cosmos 2499 02 Sep 15:01:22 15:08:02 25° 65° (ENE) 15:14:39 435.465 / 435.565
RS-15 02 Sep 15:02:36 15:09:18 20° 102° (ESE) 15:16:50 29.354- 29.394
Oscar 19 02 Sep 15:05:25 15:10:02 32° 264° (W) 15:14:37 437.125/150
AO-7 02 Sep 15:13:00 15:19:38 28° 58° (ENE) 15:26:28 29.400- 29.500
GONETS M04 02 Sep 15:23:03 15:31:49 70° 266° (W) 15:40:33
SWISSCUBE 02 Sep 15:25:29 15:30:15 76° 101° (E) 15:35:01 437.505
AIST 2 02 Sep 15:39:58 15:42:23 15° 111° (ESE) 15:44:59 435.215
KKS-1 02 Sep 15:42:24 15:45:03 16° 91° (E) 15:47:53 437.445
